COSMOS 1275 DEB, 42147

Orbit data source: Space-Track

COSMOS 1275 DEB, 42147 is space debris in LEO originally from a launch on Thu, 04 Jun 1981 UTC launched from the Plesetsk Missile And Space Complex (PKMTR). Debris objects in space refer to the collection of defunct objects orbiting the Earth. Examples of debris include non-operational satellites, rocket bodies, and fragments generated from explosions, collisions, or faulty payload assembly.

Loading next visibility...
Identifier
42147, 1981-053RK
Orbit
LEO
Country
Flag of CISCIS
Related business
Manufacturer
Unknown
Mission
Spacecraft
Bus & Motor
Unknown
Mass
Unknown
Launch date (UTC)
1981-06-04 (44 years ago)
Launch vehicle
Unknown
Launch site
Plesetsk Missile And Space Complex (PKMTR)
Object type
Payload
Rocket body
Debris
Shape & HBR
Unknown shape, 0.1 m
Radar Cross Section
Small (<0.1 m²)

Expand to show TLE details & history
Last TLE update: 1 day ago

TLE from 1 day ago
0 COSMOS 1275 DEB
1 42147U 81053RK  25300.11996451  .00002961  00000-0  13141-2 0  9991
2 42147  83.0627  77.9106 0018384  57.9767 302.3199 14.22659446615867
Epoch: 2025-10-27T02:52Z
TLE epoch observation values (Epoch: 2025-10-27T02:52:44.933Z)
Latitude
-0.00003°
Longitude
-1.003°
Altitude
812.287 km
Speed
7.451 km/s
True Right ascension
05h 11m 38s
True Declination
0° 00' 00"
Sunlit
Object was in full shadow at epoch
Visualization orbit readout
Latitude
Unknown
Longitude
Unknown
Altitude
Unknown
Speed
Unknown
Apparent Right ascension
Unknown
Apparent Declination
Unknown
Sunlit
N/A
Visualization observer readout
Local Sidereal Time
08:28:03
Azimuth
Unknown
Elevation
Unknown
Doppler factor
Unknown
Orbital elements
Apogee altitude
826.672 km
Perigee altitude
800.23 km
Semi-major axis
7,191.588 km
Eccentricity
0.00184
Inclination
83.0627°
RAAN
77.9106°
Arg. of periapsis
57.9767°
True anomaly
302.14165°
Mean anomaly
302.3199°
Eccentric anomaly
302.2308°
Mean motion
3.55882 °/min
Orbital period
101.16 mins
BSTAR
0.0013141
Loading maneuver chart data...
Computing Atmospheric mass density...

Documentation

Showing up to 5 results
|